Home > Weather > Pond Inlet > Past weeks

Flag for Canada Past Weather in Pond Inlet, Nunavut, Canada — Yesterday and Last 2 Weeks

Now
39 °F

Passing clouds.


Feels Like: 36 °F
Forecast: 28 / 36 °F
Wind: 5 mph from North

Location: Pond Inlet

Current Time: Jun 24, 2016 at 4:20:46 PM

Latest Report: Jun 24, 2016 at 3:00 PM


Visibility: 40 mi

Pressure: 29.59 "Hg

Humidity: 70%

Dew Point: 30 °F

Location of Pond InletLocation

Past Weather in Pond Inlet — Graph

°F

Pond Inlet Temperature Yesterday

Maximum temperature yesterday: 37 °F (at 12:00 PM)
Minimum temperature yesterday: 30 °F (at 2:00 AM)
Average temperature yesterday: 35 °F

High & Low Weather Summary for the Past Weeks

 TemperatureHumidityPressure
High52 °F (Jun 16, 7:00 PM)100% (Jun 12, 12:00 PM)30.23 "Hg (Jun 12, 12:00 PM)
Low28 °F (Jun 20, 5:00 AM)50% (Jun 16, 2:00 PM)29.42 "Hg (Jun 18, 3:00 PM)
Average39 °F79%29.84 "Hg
* Reported Jun 9 3:00 PM — Jun 24 3:00 PM, Pond Inlet, Weather by CustomWeather, © 2016

Note: Actual official high and low records may vary slightly from our data, if they occured in-between our weather recording intervals... More about our weather records

Advertising

Pond Inlet Weather History for the Previous 24 Hours

Scroll right to see more
 ConditionsComfort  
Time TempWeatherWind HumidityBarometerVisibility
3:00 PM
Fri, Jun 24
39 °FPassing clouds.5 mph70%29.59 "Hg40 mi
2:00 PM39 °FPartly sunny.5 mph70%29.59 "Hg30 mi
1:00 PM43 °FPartly sunny.6 mph53%29.59 "Hg30 mi
12:00 PM43 °FPartly sunny.8 mph53%29.58 "Hg30 mi
11:00 AM41 °FPartly sunny.8 mph61%29.58 "Hg30 mi
10:00 AM39 °FPartly sunny.3 mph70%29.57 "Hg9 mi
9:00 AM39 °FOvercast.3 mph70%29.57 "Hg9 mi
8:00 AM37 °FOvercast.7 mph81%29.56 "Hg9 mi
7:00 AM37 °FOvercast.3 mph87%29.55 "Hg9 mi
6:00 AM36 °FOvercast.2 mph93%29.55 "Hg9 mi
5:00 AM39 °FLight rain. Overcast.10 mph75%29.54 "Hg9 mi
4:00 AM34 °FLight rain. Overcast.2 mph100%29.54 "Hg9 mi
3:01 AM34 °FLight rain. Overcast.5 mph93%29.53 "Hg9 mi
2:00 AM36 °FOvercast.5 mph93%29.52 "Hg9 mi
1:02 AM37 °FLight rain. Mostly cloudy.No wind87%29.53 "Hg9 mi
12:01 AM37 °FMostly cloudy.No wind87%29.53 "Hg9 mi
11:51 PM
Thu, Jun 23
36 °FLight rain. Cloudy.No wind93%29.54 "Hg9 mi
11:00 PM36 °FLight rain. Mostly cloudy.6 mph87%29.54 "Hg9 mi
10:45 PM36 °FLight rain. Mostly cloudy.5 mph87%29.54 "Hg9 mi
10:00 PM36 °FMostly cloudy.5 mph87%29.54 "Hg9 mi
9:00 PM36 °FLight rain. Mostly cloudy.6 mph87%29.54 "Hg9 mi
8:00 PM36 °FOvercast.5 mph87%29.55 "Hg9 mi
7:00 PM37 °FLight rain. Cloudy.2 mph81%29.55 "Hg30 mi
6:00 PM36 °FLight rain. More clouds than sun.5 mph87%29.55 "Hg30 mi
5:47 PM36 °FLight rain. More clouds than sun.6 mph87%29.55 "Hg30 mi
5:00 PM36 °FMostly cloudy.5 mph87%29.55 "Hg30 mi
4:00 PM36 °FPartly sunny.7 mph93%29.56 "Hg30 mi
Weather by CustomWeather, © 2016

See weather overviewHow to use our weather pages